User: anonymous   Login
Location: Eaton
(41.3139°N, 82.0207°W)
Time: 01:34:52
(UTC+00:00)
Language:

DELTA 2 R/B (1) - Orbit

View from above orbital plane
View from above orbital plane
View from above satellite
View from above satellite

Ground track
Ground track

The orbit data is extracted from the following two-line orbital elements,

1 27665U 03005C   21259.39929679 -.00000038  00000-0  18667-4 0  9991
2 27665  39.5753 125.9475 0010239 275.9700 252.8229 14.28562582972852
Epoch (UTC): 16 September 2021 09:34:59
Eccentricity: 0.0010239
inclination: 39.5753°
perigee height: 789 km
apogee height: 804 km
right ascension of ascending node: 125.9475°
argument of perigee: 275.9700°
revolutions per day: 14.28562582
mean anomaly at epoch: 252.8229°
orbit number at epoch: 97285

The dashed part of the orbit path shows where the satellite is in the earth's shadow,  

DLR